Location: Bernadets
(43.3537°N, 0.3167°E)
Time: 00:40:02
(UTC+00:00)

H-2A R/B - Pass Details

Date: 24 October 2021
Orbit: 733 x 837 km, 98.2° (Epoch: 27 November)

Event Time Altitude Azimuth Distance (km) Brightness Sun altitude
Rises 17:33:51 0° 153° (SSE) 3,340 5.1 -6.6°
Reaches altitude 10° 17:36:13 10° 149° (SSE) 2,422 4.4 -7.0°
Maximum altitude 17:41:28 57° 72° (ENE) 979 2.3 -8.0°
Drops below altitude 10° 17:46:49 10° 355° (N) 2,460 4.6 -8.9°
Sets 17:49:14 0° 351° (N) 3,398 5.4 -9.4°
